Amsterdam, Netherlands

5:01 PM CET on March 23, 2017 (GMT +0100)
Schiphol

Weather History for EHAM - May, 2014

Change the Weather History Date:

Monday, May 12, 2014

  Actual Average Record
Temperature  
Mean Temperature 52 °F -  
Max Temperature 58 °F 64 °F 87 °F (1998)
Min Temperature 46 °F 49 °F 39 °F (2005)
Degree Days  
Heating Degree Days 13    
Growing Degree Days 2 (Base 50)    
Moisture  
Dew Point 47 °F    
Average Humidity 80    
Maximum Humidity 94    
Minimum Humidity 61    
Precipitation  
Precipitation 0.04 in - - ()
Sea Level Pressure  
Sea Level Pressure 29.74 in    
Wind  
Wind Speed 14 mph ()    
Max Wind Speed 20 mph    
Max Gust Speed 30 mph    
Visibility 8.7 miles    
Events Rain , Thunderstorm    
Averages and records for this station are not official NWS values.
T = Trace of Precipitation, MM = Missing Value Source: Averaged Metar Reports

Daily Weather History Graph

Daily Weather History Graph

Search for Another Location

Airport or City:

Trip Planner

Search our weather history database for the weather conditions in past years. The results will help you decide how hot, cold, wet, or windy it might be!

Date:

Astronomy

May. 12, 2014 Rise Set
Actual Time 5:50 AM CEST 9:24 PM CEST
Civil Twilight 5:09 AM CEST 10:06 PM CEST
Nautical Twilight 4:12 AM CEST 11:04 PM CEST
Astronomical Twilight 2:47 AM CEST 12:32 AM CEST
Moon 6:48 PM CEST (5/12) 4:43 AM CEST (5/12)
Length of Visible Light 16h 57m
Length of Day
15h 33m
Waxing Gibbous, 93% of the Moon is Illuminated
May 12
Waxing Gibbous
May 14
Full
May 21
Last Quarter
May 28
New
Jun 5
First Quarter

Hourly Weather History & Observations

Time (CEST) Temp. Windchill Dew Point Humidity Pressure Visibility Wind Dir Wind Speed Gust Speed Precip Events Conditions
12:00 AM 52 °F - 47 °F 76%  in 17 mi Calm Calm - -   Partly Cloudy
12:25 AM 51.8 °F - 46.4 °F 82% 29.62 in 6.2 mi WSW 19.6 mph - N/A   Partly Cloudy
12:55 AM 51.8 °F - 46.4 °F 82% 29.62 in 6.2 mi WSW 18.4 mph - N/A   Partly Cloudy
1:00 AM 53 °F - 47 °F 72%  in 17 mi Calm Calm - -   Partly Cloudy
1:25 AM 51.8 °F - 46.4 °F 82% 29.62 in 6.2 mi WSW 18.4 mph 29.9 mph N/A   Partly Cloudy
1:55 AM 53.6 °F - 46.4 °F 77% 29.62 in 6.2 mi WSW 19.6 mph - N/A   Partly Cloudy
2:00 AM 53 °F - 47 °F 73%  in 16 mi Calm Calm - -   Partly Cloudy
2:25 AM 53.6 °F - 46.4 °F 77% 29.62 in 6.2 mi WSW 18.4 mph - N/A   Partly Cloudy
2:55 AM 51.8 °F - 46.4 °F 82% 29.65 in 6.2 mi West 18.4 mph - N/A   Scattered Clouds
3:00 AM 52 °F - 47 °F 76%  in 16 mi Calm Calm - -   Partly Cloudy
3:25 AM 51.8 °F - 46.4 °F 82% 29.65 in 6.2 mi West 18.4 mph - N/A   Scattered Clouds
3:55 AM 51.8 °F - 46.4 °F 82% 29.65 in 6.2 mi West 19.6 mph - N/A Rain Light Rain Showers
4:00 AM 52 °F - 46 °F 74%  in 17 mi Calm Calm - - Rain Light Rain Showers
4:25 AM 51.8 °F - 46.4 °F 82% 29.65 in 6.2 mi West 19.6 mph - N/A   Mostly Cloudy
4:55 AM 51.8 °F - 46.4 °F 82% 29.65 in 6.2 mi West 19.6 mph - N/A   Mostly Cloudy
5:00 AM 52 °F - 46 °F 74%  in 17 mi Calm Calm - - Rain Rain
5:25 AM 51.8 °F - 46.4 °F 82% 29.65 in 6.2 mi West 17.3 mph - N/A Rain Light Rain Showers
5:55 AM 51.8 °F - 48.2 °F 88% 29.65 in 6.2 mi West 16.1 mph - N/A   Mostly Cloudy
6:00 AM 51 °F - 47 °F 81%  in 16 mi Calm Calm - - Rain Rain
6:25 AM 51.8 °F - 46.4 °F 82% 29.65 in 6.2 mi West 13.8 mph - N/A   Scattered Clouds
6:55 AM 51.8 °F - 46.4 °F 82% 29.65 in 6.2 mi West 16.1 mph - N/A   Mostly Cloudy
7:00 AM 52 °F - 47 °F 76%  in 19 mi Calm Calm - -   Partly Cloudy
7:25 AM 51.8 °F - 46.4 °F 82% 29.68 in 6.2 mi West 13.8 mph - N/A   Mostly Cloudy
7:55 AM 51.8 °F - 48.2 °F 88% 29.68 in 6.2 mi West 12.7 mph - N/A Rain Light Rain Showers
8:00 AM 52 °F - 48 °F 81%  in 17 mi Calm Calm - - Thunderstorm Light Thunderstorm
8:25 AM 51.8 °F - 48.2 °F 88% 29.68 in 6.2 mi West 13.8 mph - N/A   Partly Cloudy
8:55 AM 51.8 °F - 48.2 °F 88% 29.71 in 6.2 mi West 16.1 mph - N/A Rain Light Rain Showers
9:00 AM 51 °F - 48 °F 86%  in 8 mi Calm Calm - - Rain Heavy Rain
9:25 AM 50.0 °F - 48.2 °F 94% 29.71 in 6.2 mi West 11.5 mph - N/A Rain Light Rain Showers
9:55 AM 51.8 °F - 48.2 °F 88% 29.71 in 6.2 mi West 13.8 mph - N/A Rain Light Rain Showers
10:00 AM 52 °F - 48 °F 82%  in 14 mi Calm Calm - - Rain Rain
10:25 AM 53.6 °F - 48.2 °F 82% 29.71 in 6.2 mi West 16.1 mph - N/A   Scattered Clouds
10:55 AM 53.6 °F - 50.0 °F 88% 29.74 in 6.2 mi WNW 15.0 mph - N/A   Scattered Clouds
11:00 AM 54 °F - 49 °F 76%  in 22 mi Calm Calm - -   Partly Cloudy
11:25 AM 53.6 °F - 48.2 °F 82% 29.74 in 6.2 mi WNW 16.1 mph - N/A   Scattered Clouds
11:55 AM 53.6 °F - 46.4 °F 77% 29.74 in 6.2 mi West 17.3 mph - N/A   Scattered Clouds
12:00 PM 54 °F - 47 °F 70%  in 22 mi Calm Calm - -   Partly Cloudy
12:25 PM 55.4 °F - 46.4 °F 72% 29.74 in 6.2 mi West 17.3 mph - N/A   Scattered Clouds
12:55 PM 57.2 °F - 48.2 °F 72% 29.74 in 6.2 mi West 17.3 mph - N/A   Scattered Clouds
1:00 PM 57 °F - 47 °F 61%  in 25 mi Calm Calm - -   Partly Cloudy
1:25 PM 55.4 °F - 46.4 °F 72% 29.77 in 6.2 mi West 16.1 mph - N/A   Scattered Clouds
1:55 PM 55.4 °F - 46.4 °F 72% 29.77 in 6.2 mi West 16.1 mph - N/A   Scattered Clouds
2:00 PM 56 °F - 47 °F 63%  in 19 mi Calm Calm - -   Partly Cloudy
2:25 PM 55.4 °F - 46.4 °F 72% 29.77 in 6.2 mi West 15.0 mph - N/A   Scattered Clouds
2:55 PM 51.8 °F - 48.2 °F 88% 29.77 in 6.2 mi West 16.1 mph - N/A Rain Light Rain Showers
3:00 PM 51 °F - 47 °F 82%  in 6 mi Calm Calm - - Rain Light Rain Showers
3:25 PM 51.8 °F - 50.0 °F 94% 29.77 in 6.2 mi West 11.5 mph - N/A Rain Light Rain Showers
3:55 PM 53.6 °F - 50.0 °F 88% 29.80 in 6.2 mi WNW 12.7 mph - N/A Rain Light Rain Showers
4:00 PM 54 °F - 49 °F 76%  in 11 mi Calm Calm - - Rain Rain
4:25 PM 55.4 °F - 50.0 °F 82% 29.80 in 6.2 mi WNW 12.7 mph - N/A   Scattered Clouds
4:55 PM 55.4 °F - 48.2 °F 77% 29.80 in 6.2 mi West 13.8 mph - N/A   Scattered Clouds
5:00 PM 55 °F - 47 °F 66%  in 19 mi Calm Calm - -   Partly Cloudy
5:25 PM 55.4 °F - 46.4 °F 72% 29.80 in 6.2 mi West 12.7 mph - N/A   Scattered Clouds
5:55 PM 53.6 °F - 46.4 °F 77% 29.80 in 6.2 mi West 13.8 mph - N/A   Scattered Clouds
6:00 PM 54 °F - 46 °F 66%  in 28 mi Calm Calm - -   Partly Cloudy
6:25 PM 53.6 °F - 46.4 °F 77% 29.80 in 6.2 mi West 10.4 mph - N/A   Partly Cloudy
6:55 PM 53.6 °F - 46.4 °F 77% 29.83 in 6.2 mi West 11.5 mph - N/A   Scattered Clouds
7:00 PM 54 °F - 47 °F 68%  in 22 mi Calm Calm - -   Partly Cloudy
7:25 PM 53.6 °F - 44.6 °F 72% 29.83 in 6.2 mi West 11.5 mph - N/A   Scattered Clouds
7:55 PM 53.6 °F - 46.4 °F 77% 29.83 in 6.2 mi WNW 6.9 mph - N/A   Partly Cloudy
8:00 PM 53 °F - 46 °F 68%  in 22 mi Calm Calm - -   Partly Cloudy
8:25 PM 51.8 °F - 46.4 °F 82% 29.83 in 6.2 mi WNW 8.1 mph - N/A   Partly Cloudy
8:55 PM 50.0 °F - 44.6 °F 82% 29.83 in 6.2 mi NW 5.8 mph - N/A   Partly Cloudy
9:00 PM 50 °F - 45 °F 78%  in 19 mi Calm Calm - -   Scattered Clouds
9:25 PM 48.2 °F - 44.6 °F 87% 29.83 in 6.2 mi West 4.6 mph - N/A   Partly Cloudy
9:55 PM 48.2 °F - 44.6 °F 87% 29.83 in 6.2 mi WSW 3.5 mph - N/A   Partly Cloudy
10:00 PM 48 °F - 45 °F 84%  in 22 mi Calm Calm - -   Scattered Clouds
10:25 PM 48.2 °F - 44.6 °F 87% 29.83 in 6.2 mi West 2.3 mph - N/A   Partly Cloudy
10:55 PM 46.4 °F 45.2 °F 44.6 °F 93% 29.86 in - West 3.5 mph - N/A   Clear
11:00 PM 47 °F - 45 °F 88%  in 19 mi Calm Calm - -   Scattered Clouds
11:25 PM 48.2 °F - 44.6 °F 87% 29.86 in 6.2 mi West 3.5 mph - N/A   Partly Cloudy
11:55 PM 46.4 °F - 44.6 °F 93% 29.86 in 6.2 mi SW 2.3 mph - N/A   Partly Cloudy